Regional Weather Roundup
Issued by NWS

Home | Current Version | Previous Version | Graphics & Text | Print | Product List | Glossary On
Versions: 1 2 3 4 5 6 7 8 9 10 11 12 13 14 15 16 17 18 19 20 21 22 23 24 25 26 27 28 29 30 31 32 33 34 35 36 37 38 39 40 41 42 43 44 45 46 47 48 49 50
000
ASUS43 KLSX 221859
RWRMO

WEATHER SUMMARY FOR MISSOURI
NATIONAL WEATHER SERVICE SPRINGFIELD MO
200 PM CDT TUE APR 22 2014

NOTE: "FAIR" INDICATES FEW OR NO CLOUDS BELOW 12,000 FEET WITH NO
       SIGNIFICANT WEATHER AND/OR OBSTRUCTIONS TO VISIBILITY.
       CURRENT SKY AND/OR WEATHER CONDITIONS ARE NOT AVAILABLE FOR
       CHILLICOTHE AND FARMINGTON.

MOZ001>031-035>038-043-044-053-054-222000-
...NORTHERN AND WESTERN MISSOURI...

CITY           SKY/WX    TMP DP  RH WIND       PRES   REMARKS
KANSAS CTY INT MOSUNNY   65  31  28 E7G16     30.10F
KANSAS C DTWN  SUNNY     67  32  27 VRB6      30.09F
LEE`S SUMMIT   SUNNY     64  32  30 NE7       30.10F
ST JOSEPH      SUNNY     64  32  30 VRB3      30.09F
CHILLICOTHE      N/A     64  34  32 NE8       30.10F
KIRKSVILLE     SUNNY     63  33  32 N14G23    30.09F

$$
MOZ066>068-077>081-088>096-101>105-222000-
...SOUTHWEST MISSOURI...

CITY           SKY/WX    TMP DP  RH WIND       PRES   REMARKS
SPRINGFIELD    SUNNY     68  36  30 N13       30.06F
JOPLIN         SUNNY     67  37  33 NE8       30.08F

$$
MOZ032>034-039>042-045>050-055>058-069>072-222000-
...CENTRAL MISSOURI...

CITY           SKY/WX    TMP DP  RH WIND       PRES   REMARKS
COLUMBIA       SUNNY     64  40  41 N12       30.07F
JEFFERSON CITY SUNNY     65  31  28 N10       30.06S
ROLLA          SUNNY     64  38  38 NW9       30.03F
SEDALIA        SUNNY     65  36  34 NW8       30.09F
OSAGE BEACH    SUNNY     66  36  32 NW5       30.07F

$$
MOZ051-052-059>065-222000-
...EAST CENTRAL MISSOURI...

CITY           SKY/WX    TMP DP  RH WIND       PRES   REMARKS
ST LOUIS INTL  SUNNY     67  39  35 NW13G20   30.02F
SPIRIT OF STL  SUNNY     65  38  36 N10       30.03F
ST CHARLES     SUNNY     66  39  37 W15       30.01F

$$
MOZ072>076-082>087-097>100-106>115-222000-
...SOUTH CENTRAL AND SOUTHEAST MISSOURI...

CITY           SKY/WX    TMP DP  RH WIND       PRES   REMARKS
CAPE GIRARDEAU SUNNY     70  41  34 N15G23    29.97S
FARMINGTON     SUNNY     66  37  34 N7        30.03S
POPLAR BLUFF   SUNNY     73  40  30 N14G23    29.95F
WEST PLAINS    SUNNY     71  35  26 N10G17    30.02F

$$



USA.gov is the U.S. government's official web portal to all federal, state and local government web resources and services.